Location: Kellogg
(38.0159°N, 90.0546°W)
Time: 08:05:41
(UTC+00:00)

Vanguard 1 Rocket - Pass Details

Date: 15 September 2024
Orbit: 650 x 4218 km, 34.3° (Epoch: 05 October)

Event Time Altitude Azimuth Distance (km) Brightness Sun altitude
Rises 15:02:40 0° 285° (WNW) 7,592 11.6 37.1°
Reaches altitude 10° 15:07:27 10° 281° (WNW) 6,879 11.5 37.9°
Maximum altitude 15:31:28 56° 212° (SSW) 4,636 11.6 41.7°
Drops below altitude 10° 15:53:05 10° 141° (SE) 6,242 12.7 44.9°
Sets 15:57:13 0° 136° (SE) 6,886 12.6 45.5°
